Location: Llanfihangel-Ystrad
(52.1833°N, 4.1667°W)
Time: 20:29:44
(UTC+00:00)

Lacrosse 5 - Pass Details

Date: 17 February 2020
Orbit: 715 x 724 km, 57.0° (Epoch: 21 March)

Event Time Altitude Azimuth Distance (km) Brightness Sun altitude
Exits shadow 04:38:35 80° 118° (ESE) 737 1.8 -26.6°
Drops below altitude 10° 04:43:23 10° 120° (ESE) 2,207 4.9 -25.9°
Sets 04:45:46 0° 120° (ESE) 3,127 5.8 -25.6°
